{"data":{"norad_id":62593,"epoch":"2026-05-25T01:40:00.834240Z","epoch_age_seconds":69001,"freshness":"FRESH","line1":"1 62593U 25008G   26145.06945410  .00185917  00000+0  14109-2 0  9994","line2":"2 62593  43.0031  26.0548 0004952 266.9457  93.0844 15.70986240 79198","mean_motion":15.7098624,"eccentricity":0.0004952,"inclination_deg":43.0031,"raan_deg":26.0548,"arg_perigee_deg":266.9457,"mean_anomaly_deg":93.0844,"bstar":0.0014109,"rev_number":7919,"period_min":91.662165035895,"perigee_km":352.74232987522,"apogee_km":359.41189553244,"semimajor_km":6734.2141127038,"source":"CELESTRAK","updated_at":"2026-05-25T13:38:19.734344Z"}}